| time (UTC) | temp F | wind direction | speed MPH | gust MPH | rain 1hr in | rain 24hr in | rain mn in | humidity % | barometer mb |
| 20260904095530 | 67 | 160 | 0.0 | 1.0 | 0.00 | 0.89 | 0.00 | 98 | 1020.3 |
| 20260904095024 | 67 | 119 | 0.0 | 0.0 | 0.00 | 0.89 | 0.00 | 98 | 1020.8 |
| 20260904094546 | 67 | 0 | 0.0 | 1.0 | 0.00 | 0.89 | 0.00 | 98 | 1021.0 |
| 20260904094026 | 67 | 0 | 0.0 | 1.0 | 0.00 | 0.89 | 0.00 | 98 | 1020.9 |
| 20260904093526 | 67 | 119 | 0.0 | 0.0 | 0.00 | 0.89 | 0.00 | 98 | 1021.0 |
| 20260904093045 | 67 | 0 | 0.0 | 0.0 | 0.00 | 0.89 | 0.00 | 98 | 1020.9 |
| 20260904092528 | 67 | 0 | 0.0 | 1.0 | 0.00 | 0.89 | 0.00 | 98 | 1020.7 |
| 20260904092029 | 67 | 0 | 0.0 | 1.0 | 0.00 | 0.89 | 0.00 | 98 | 1020.6 |
| 20260904091546 | 67 | 0 | 0.0 | 0.0 | 0.00 | 0.89 | 0.00 | 98 | 1020.4 |
| 20260904091024 | 67 | 0 | 0.0 | 1.0 | 0.00 | 0.89 | 0.00 | 98 | 1020.2 |
| 20260904090525 | 67 | 0 | 0.0 | 1.0 | 0.00 | 0.89 | 0.00 | 98 | 1020.2 |
| 20260904090056 | 67 | 0 | 0.0 | 1.0 | 0.00 | 0.89 | 0.00 | 98 | 1020.1 |
| 20260904085531 | 67 | 0 | 0.0 | 1.0 | 0.00 | 0.89 | 0.00 | 98 | 1020.1 |
| 20260904085023 | 67 | 0 | 0.0 | 2.0 | 0.00 | 0.89 | 0.00 | 98 | 1020.2 |
| 20260904084550 | 68 | 115 | 0.0 | 2.0 | 0.00 | 0.89 | 0.00 | 98 | 1020.7 |
| 20260904084026 | 68 | 0 | 0.0 | 3.0 | 0.00 | 0.89 | 0.00 | 98 | 1020.6 |
| 20260904083525 | 68 | 0 | 0.0 | 3.0 | 0.00 | 0.89 | 0.00 | 98 | 1020.7 |
| 20260904083055 | 68 | 121 | 0.0 | 2.0 | 0.00 | 0.89 | 0.00 | 98 | 1020.6 |
| 20260904082527 | 68 | 116 | 0.0 | 1.0 | 0.00 | 0.89 | 0.00 | 98 | 1020.7 |
| 20260904082027 | 68 | 117 | 0.0 | 2.0 | 0.00 | 0.89 | 0.00 | 98 | 1020.7 |
| 20260904081557 | 68 | 58 | 0.0 | 3.0 | 0.00 | 0.89 | 0.00 | 98 | 1020.8 |
| 20260904081026 | 68 | 95 | 1.0 | 3.0 | 0.00 | 0.89 | 0.00 | 98 | 1020.7 |
| 20260904080528 | 68 | 103 | 1.0 | 2.0 | 0.00 | 0.89 | 0.00 | 99 | 1020.7 |
| 20260904080051 | 68 | 120 | 1.0 | 2.0 | 0.00 | 0.89 | 0.00 | 99 | 1020.5 |
| 20260904075527 | 68 | 293 | 0.0 | 3.0 | 0.00 | 0.89 | 0.00 | 99 | 1020.5 |
| 20260904075027 | 68 | 0 | 0.0 | 4.0 | 0.00 | 0.89 | 0.00 | 99 | 1020.6 |
| 20260904074557 | 68 | 37 | 1.0 | 5.0 | 0.00 | 0.89 | 0.00 | 99 | 1020.7 |
| 20260904074025 | 68 | 259 | 2.0 | 5.0 | 0.00 | 0.89 | 0.00 | 99 | 1020.5 |
| 20260904073524 | 67 | 0 | 0.0 | 1.0 | 0.00 | 0.89 | 0.00 | 98 | 1019.6 |
| 20260904073048 | 67 | 0 | 0.0 | 1.0 | 0.00 | 0.89 | 0.00 | 99 | 1019.4 |
| 20260904072525 | 67 | 0 | 0.0 | 0.0 | 0.00 | 0.89 | 0.00 | 98 | 1019.4 |
| 20260904072025 | 67 | 0 | 0.0 | 0.0 | 0.00 | 0.89 | 0.00 | 98 | 1019.2 |
| 20260904071600 | 67 | 0 | 0.0 | 0.0 | 0.00 | 0.89 | 0.00 | 98 | 1019.1 |
| 20260904071026 | 67 | 0 | 0.0 | 1.0 | 0.00 | 0.89 | 0.00 | 98 | 1018.9 |
| 20260904070530 | 67 | 0 | 0.0 | 1.0 | 0.00 | 0.89 | 0.00 | 98 | 1018.9 |
| 20260904070053 | 67 | 0 | 0.0 | 1.0 | 0.00 | 0.89 | 0.00 | 98 | 1018.7 |
| 20260904065525 | 67 | 0 | 0.0 | 1.0 | 0.00 | 0.89 | 0.00 | 98 | 1018.8 |
| 20260904065027 | 67 | 0 | 0.0 | 1.0 | 0.00 | 0.89 | 0.00 | 98 | 1018.9 |
| 20260904064550 | 67 | 0 | 0.0 | 0.0 | 0.00 | 0.89 | 0.00 | 98 | 1019.0 |
| 20260904064029 | 67 | 0 | 0.0 | 0.0 | 0.00 | 0.89 | 0.00 | 98 | 1019.0 |
| 20260904063526 | 67 | 0 | 0.0 | 0.0 | 0.00 | 0.89 | 0.00 | 98 | 1019.0 |
| 20260904063103 | 67 | 0 | 0.0 | 1.0 | 0.00 | 0.89 | 0.00 | 98 | 1019.0 |
| 20260904062530 | 67 | 0 | 0.0 | 1.0 | 0.00 | 0.89 | 0.00 | 98 | 1019.1 |
| 20260904062024 | 67 | 0 | 0.0 | 1.0 | 0.00 | 0.89 | 0.00 | 98 | 1019.2 |
| 20260904061601 | 67 | 0 | 0.0 | 1.0 | 0.00 | 0.89 | 0.00 | 98 | 1019.2 |
| 20260904061030 | 67 | 0 | 0.0 | 0.0 | 0.00 | 0.89 | 0.00 | 98 | 1019.1 |
| 20260904060526 | 67 | 0 | 0.0 | 0.0 | 0.00 | 0.89 | 0.00 | 98 | 1019.2 |
| 20260904060110 | 67 | 0 | 0.0 | 0.0 | 0.00 | 0.89 | 0.00 | 98 | 1019.3 |
| 20260904055525 | 67 | 0 | 0.0 | 0.0 | 0.00 | 0.89 | 0.00 | 98 | 1019.4 |
| 20260904055026 | 67 | 0 | 0.0 | 0.0 | 0.00 | 0.89 | 0.00 | 98 | 1019.3 |
| 20260904054551 | 67 | 0 | 0.0 | 0.0 | 0.00 | 0.89 | 0.00 | 98 | 1019.4 |
| 20260904054027 | 67 | 0 | 0.0 | 0.0 | 0.00 | 0.89 | 0.00 | 98 | 1019.4 |
| 20260904053524 | 67 | 0 | 0.0 | 0.0 | 0.00 | 0.89 | 0.00 | 98 | 1019.5 |
| 20260904053059 | 67 | 0 | 0.0 | 0.0 | 0.00 | 0.89 | 0.00 | 98 | 1019.6 |
| 20260904052524 | 67 | 0 | 0.0 | 1.0 | 0.00 | 0.89 | 0.00 | 98 | 1019.5 |
| 20260904052028 | 67 | 0 | 0.0 | 1.0 | 0.00 | 0.89 | 0.00 | 98 | 1019.8 |
| 20260904051547 | 67 | 0 | 0.0 | 1.0 | 0.00 | 0.89 | 0.00 | 98 | 1019.8 |
| 20260904051024 | 67 | 0 | 0.0 | 0.0 | 0.00 | 0.89 | 0.00 | 98 | 1020.0 |
| 20260904050526 | 67 | 0 | 0.0 | 0.0 | 0.00 | 0.89 | 0.00 | 98 | 1020.1 |
| 20260904050050 | 67 | 0 | 0.0 | 1.0 | 0.00 | 0.89 | 0.00 | 98 | 1020.0 |
| 20260904045526 | 67 | 0 | 0.0 | 1.0 | 0.00 | 0.89 | 0.00 | 98 | 1020.2 |
| 20260904045027 | 67 | 0 | 0.0 | 1.0 | 0.00 | 0.89 | 0.00 | 98 | 1020.4 |
| 20260904044550 | 67 | 0 | 0.0 | 0.0 | 0.00 | 0.89 | 0.00 | 98 | 1020.5 |
| 20260904044027 | 67 | 0 | 0.0 | 0.0 | 0.00 | 0.89 | 0.00 | 98 | 1020.5 |
| 20260904043524 | 67 | 0 | 0.0 | 0.0 | 0.00 | 0.89 | 0.00 | 98 | 1020.6 |
| 20260904043055 | 67 | 0 | 0.0 | 0.0 | 0.00 | 0.89 | 0.00 | 98 | 1020.6 |
| 20260904042526 | 67 | 0 | 0.0 | 0.0 | 0.00 | 0.89 | 0.00 | 98 | 1020.7 |
| 20260904042024 | 67 | 0 | 0.0 | 0.0 | 0.00 | 0.89 | 0.00 | 98 | 1020.7 |
| 20260904041552 | 67 | 0 | 0.0 | 0.0 | 0.00 | 0.89 | 0.00 | 98 | 1020.7 |
| 20260904041030 | 67 | 0 | 0.0 | 0.0 | 0.00 | 0.89 | 0.00 | 98 | 1020.8 |
| 20260904040528 | 67 | 0 | 0.0 | 0.0 | 0.00 | 0.89 | 0.00 | 98 | 1020.8 |
| 20260904035525 | 68 | 0 | 0.0 | 0.0 | 0.00 | 0.89 | 0.89 | 98 | 1020.8 |
| 20260904035026 | 68 | 0 | 0.0 | 0.0 | 0.00 | 0.89 | 0.89 | 98 | 1020.8 |
| 20260904034609 | 68 | 0 | 0.0 | 0.0 | 0.00 | 0.89 | 0.89 | 97 | 1020.9 |
| 20260904034024 | 68 | 0 | 0.0 | 0.0 | 0.00 | 0.89 | 0.89 | 97 | 1020.8 |
| 20260904033526 | 68 | 0 | 0.0 | 1.0 | 0.00 | 0.89 | 0.89 | 97 | 1021.0 |
| 20260904033054 | 68 | 0 | 0.0 | 1.0 | 0.00 | 0.89 | 0.89 | 98 | 1021.1 |
| 20260904032524 | 68 | 0 | 0.0 | 1.0 | 0.00 | 0.89 | 0.89 | 97 | 1021.2 |
| 20260904032026 | 68 | 0 | 0.0 | 1.0 | 0.00 | 0.89 | 0.89 | 97 | 1021.5 |
| 20260904031551 | 68 | 0 | 0.0 | 1.0 | 0.01 | 0.89 | 0.89 | 97 | 1021.3 |
| 20260904031024 | 68 | 109 | 0.0 | 1.0 | 0.02 | 0.89 | 0.89 | 97 | 1021.6 |
| 20260904030528 | 68 | 0 | 0.0 | 1.0 | 0.07 | 0.89 | 0.89 | 97 | 1021.8 |
| 20260904030100 | 68 | 0 | 0.0 | 1.0 | 0.18 | 0.89 | 0.89 | 97 | 1021.7 |
| 20260904025526 | 68 | 0 | 0.0 | 1.0 | 0.25 | 0.89 | 0.89 | 97 | 1021.8 |
| 20260904025026 | 68 | 0 | 0.0 | 1.0 | 0.44 | 0.89 | 0.89 | 97 | 1021.6 |
| 20260904024546 | 68 | 0 | 0.0 | 1.0 | 0.79 | 0.89 | 0.89 | 97 | 1021.6 |
| 20260904024025 | 68 | 0 | 0.0 | 0.0 | 0.89 | 0.89 | 0.89 | 97 | 1021.6 |
| 20260904023526 | 68 | 0 | 0.0 | 1.0 | 0.89 | 0.89 | 0.89 | 97 | 1022.2 |
| 20260904023105 | 68 | 0 | 0.0 | 1.0 | 0.89 | 0.89 | 0.89 | 96 | 1022.2 |
| 20260904022525 | 69 | 0 | 0.0 | 1.0 | 0.89 | 0.89 | 0.89 | 97 | 1022.3 |
| 20260904022027 | 69 | 0 | 0.0 | 3.0 | 0.89 | 0.89 | 0.89 | 96 | 1022.8 |
| 20260904021550 | 69 | 104 | 0.0 | 4.0 | 0.88 | 0.88 | 0.88 | 96 | 1023.1 |
| 20260904021026 | 69 | 245 | 2.0 | 4.0 | 0.87 | 0.87 | 0.87 | 96 | 1023.4 |
| 20260904020524 | 69 | 278 | 0.0 | 4.0 | 0.81 | 0.81 | 0.81 | 95 | 1023.2 |
| 20260904020056 | 69 | 309 | 0.0 | 6.0 | 0.70 | 0.70 | 0.70 | 94 | 1022.6 |
| 20260904015524 | 70 | 36 | 1.0 | 7.0 | 0.61 | 0.61 | 0.61 | 93 | 1022.2 |
| 20260904015454 | 71 | 53 | 3.0 | 7.0 | 0.42 | 0.42 | 0.42 | 91 | 1022.2 |
| 20260904014554 | 73 | 76 | 2.0 | 10.0 | 0.05 | 0.05 | 0.05 | 87 | 1022.1 |
| 20260904014029 | 75 | 58 | 4.0 | 10.0 | 0.00 | 0.00 | 0.00 | 84 | 1022.2 |
| 20260904013525 | 77 | 43 | 2.0 | 6.0 | 0.00 | 0.00 | 0.00 | 86 | 1022.1 |
| 20260904013049 | 78 | 55 | 2.0 | 4.0 | 0.00 | 0.00 | 0.00 | 88 | 1020.7 |
| 20260904012530 | 79 | 74 | 0.0 | 0.0 | 0.00 | 0.00 | 0.00 | 93 | 1020.3 |
| 20260904012032 | 79 | 0 | 0.0 | 0.0 | 0.00 | 0.00 | 0.00 | 93 | 1020.1 |
| 20260904011548 | 78 | 0 | 0.0 | 0.0 | 0.00 | 0.00 | 0.00 | 93 | 1019.8 |
| 20260904011028 | 78 | 0 | 0.0 | 0.0 | 0.00 | 0.00 | 0.00 | 93 | 1019.9 |
| 20260904010527 | 78 | 0 | 0.0 | 0.0 | 0.00 | 0.00 | 0.00 | 93 | 1019.7 |
| 20260904010100 | 78 | 0 | 0.0 | 0.0 | 0.00 | 0.00 | 0.00 | 93 | 1019.5 |
| 20260904005524 | 78 | 0 | 0.0 | 0.0 | 0.00 | 0.00 | 0.00 | 93 | 1019.1 |
| 20260904005024 | 78 | 0 | 0.0 | 0.0 | 0.00 | 0.00 | 0.00 | 93 | 1019.0 |
| 20260904004559 | 78 | 0 | 0.0 | 0.0 | 0.00 | 0.00 | 0.00 | 93 | 1019.2 |
| 20260904004026 | 78 | 0 | 0.0 | 0.0 | 0.00 | 0.00 | 0.00 | 93 | 1019.2 |
| 20260904003531 | 78 | 0 | 0.0 | 0.0 | 0.00 | 0.00 | 0.00 | 92 | 1019.1 |
| 20260904003049 | 79 | 0 | 0.0 | 0.0 | 0.00 | 0.00 | 0.00 | 92 | 1018.9 |
| 20260904002527 | 79 | 0 | 0.0 | 0.0 | 0.00 | 0.00 | 0.00 | 91 | 1018.7 |
| 20260904002026 | 79 | 0 | 0.0 | 0.0 | 0.00 | 0.00 | 0.00 | 90 | 1018.6 |
| 20260904001553 | 79 | 0 | 0.0 | 0.0 | 0.00 | 0.00 | 0.00 | 90 | 1018.6 |
| 20260904001029 | 79 | 0 | 0.0 | 0.0 | 0.00 | 0.00 | 0.00 | 90 | 1018.6 |
| 20260904000525 | 80 | 0 | 0.0 | 0.0 | 0.00 | 0.00 | 0.00 | 90 | 1018.9 |
| 20260904000131 | 80 | 0 | 0.0 | 0.0 | 0.00 | 0.00 | 0.00 | 89 | 1018.8 |
| 20260903235523 | 80 | 0 | 0.0 | 0.0 | 0.00 | 0.00 | 0.00 | 89 | 1018.8 |
| 20260903235026 | 80 | 0 | 0.0 | 0.0 | 0.00 | 0.00 | 0.00 | 87 | 1019.0 |
| 20260903234547 | 80 | 0 | 0.0 | 0.0 | 0.00 | 0.00 | 0.00 | 87 | 1019.1 |
| 20260903234024 | 81 | 0 | 0.0 | 0.0 | 0.00 | 0.00 | 0.00 | 87 | 1019.3 |
| 20260903233527 | 81 | 0 | 0.0 | 0.0 | 0.00 | 0.00 | 0.00 | 86 | 1019.3 |
| 20260903233047 | 81 | 0 | 0.0 | 0.0 | 0.00 | 0.00 | 0.00 | 85 | 1019.5 |
| 20260903232529 | 81 | 0 | 0.0 | 0.0 | 0.00 | 0.00 | 0.00 | 85 | 1019.6 |
| 20260903232025 | 81 | 0 | 0.0 | 0.0 | 0.00 | 0.00 | 0.00 | 84 | 1019.6 |
| 20260903231558 | 81 | 0 | 0.0 | 1.0 | 0.00 | 0.00 | 0.00 | 83 | 1019.7 |
| 20260903231025 | 82 | 0 | 0.0 | 1.0 | 0.00 | 0.00 | 0.00 | 82 | 1019.6 |
| 20260903230523 | 82 | 0 | 0.0 | 1.0 | 0.00 | 0.00 | 0.00 | 81 | 1019.7 |
| 20260903230049 | 82 | 0 | 0.0 | 1.0 | 0.00 | 0.00 | 0.00 | 81 | 1019.6 |
| 20260903225526 | 82 | 115 | 0.0 | 1.0 | 0.00 | 0.00 | 0.00 | 80 | 1019.5 |
| 20260903225025 | 82 | 0 | 0.0 | 1.0 | 0.00 | 0.00 | 0.00 | 80 | 1019.4 |
| 20260903224550 | 82 | 0 | 0.0 | 1.0 | 0.00 | 0.00 | 0.00 | 81 | 1019.5 |
| 20260903224029 | 82 | 115 | 0.0 | 1.0 | 0.00 | 0.00 | 0.00 | 80 | 1019.6 |
| 20260903223525 | 82 | 116 | 0.0 | 1.0 | 0.00 | 0.00 | 0.00 | 80 | 1019.5 |
| 20260903223053 | 82 | 116 | 0.0 | 1.0 | 0.00 | 0.00 | 0.00 | 81 | 1019.3 |
| 20260903222524 | 82 | 117 | 0.0 | 1.0 | 0.00 | 0.00 | 0.00 | 81 | 1018.9 |
| 20260903222029 | 82 | 121 | 0.0 | 1.0 | 0.00 | 0.00 | 0.00 | 81 | 1019.1 |
| 20260903221547 | 82 | 0 | 0.0 | 2.0 | 0.00 | 0.00 | 0.00 | 81 | 1018.9 |
| 20260903221025 | 82 | 121 | 0.0 | 2.0 | 0.00 | 0.00 | 0.00 | 81 | 1018.9 |
| 20260903220524 | 82 | 121 | 1.0 | 2.0 | 0.00 | 0.00 | 0.00 | 82 | 1018.6 |
| 20260903215528 | 83 | 114 | 0.0 | 1.0 | 0.00 | 0.00 | 0.00 | 79 | 1018.7 |
| 20260903215025 | 84 | 115 | 0.0 | 1.0 | 0.00 | 0.00 | 0.00 | 78 | 1018.8 |
| 20260903214559 | 84 | 95 | 0.0 | 1.0 | 0.00 | 0.00 | 0.00 | 78 | 1018.5 |
| 20260903214026 | 84 | 0 | 0.0 | 1.0 | 0.00 | 0.00 | 0.00 | 79 | 1018.4 |
| 20260903213528 | 85 | 0 | 0.0 | 1.0 | 0.00 | 0.00 | 0.00 | 80 | 1018.2 |
| 20260903213054 | 85 | 0 | 0.0 | 1.0 | 0.00 | 0.00 | 0.00 | 82 | 1018.0 |
| 20260903212527 | 85 | 0 | 0.0 | 1.0 | 0.00 | 0.00 | 0.00 | 82 | 1018.1 |
| 20260903212025 | 84 | 0 | 0.0 | 1.0 | 0.00 | 0.00 | 0.00 | 83 | 1018.1 |
| 20260903211615 | 84 | 0 | 0.0 | 1.0 | 0.00 | 0.00 | 0.00 | 83 | 1018.3 |
| 20260903211028 | 83 | 110 | 0.0 | 1.0 | 0.00 | 0.00 | 0.00 | 84 | 1018.4 |
| 20260903210526 | 83 | 109 | 0.0 | 1.0 | 0.00 | 0.00 | 0.00 | 84 | 1018.4 |
| 20260903210049 | 83 | 103 | 1.0 | 1.0 | 0.00 | 0.00 | 0.00 | 83 | 1018.6 |
| 20260903205525 | 83 | 99 | 0.0 | 1.0 | 0.00 | 0.00 | 0.00 | 83 | 1018.6 |
| 20260903205026 | 83 | 0 | 0.0 | 1.0 | 0.00 | 0.00 | 0.00 | 83 | 1018.9 |
| 20260903204556 | 83 | 0 | 0.0 | 2.0 | 0.00 | 0.00 | 0.00 | 82 | 1018.9 |
| 20260903204023 | 83 | 0 | 1.0 | 2.0 | 0.00 | 0.00 | 0.00 | 81 | 1018.7 |
| 20260903203526 | 84 | 108 | 1.0 | 1.0 | 0.00 | 0.00 | 0.00 | 80 | 1018.7 |
| 20260903203054 | 85 | 124 | 0.0 | 1.0 | 0.00 | 0.00 | 0.00 | 79 | 1018.9 |
| 20260903202525 | 85 | 101 | 0.0 | 1.0 | 0.00 | 0.00 | 0.00 | 79 | 1019.1 |
| 20260903202026 | 85 | 0 | 0.0 | 1.0 | 0.00 | 0.00 | 0.00 | 79 | 1019.1 |
| 20260903201549 | 85 | 0 | 0.0 | 2.0 | 0.00 | 0.00 | 0.00 | 79 | 1019.0 |
| 20260903201025 | 86 | 125 | 0.0 | 2.0 | 0.00 | 0.00 | 0.00 | 78 | 1018.9 |
| 20260903200526 | 87 | 116 | 1.0 | 2.0 | 0.00 | 0.00 | 0.00 | 76 | 1019.3 |
| 20260903200046 | 88 | 0 | 0.0 | 1.0 | 0.00 | 0.00 | 0.00 | 73 | 1019.5 |
| 20260903195524 | 88 | 224 | 0.0 | 1.0 | 0.00 | 0.00 | 0.00 | 74 | 1019.5 |
| 20260903195027 | 88 | 0 | 0.0 | 1.0 | 0.00 | 0.00 | 0.00 | 75 | 1019.7 |
| 20260903194547 | 87 | 0 | 0.0 | 2.0 | 0.00 | 0.00 | 0.00 | 75 | 1019.6 |
| 20260903194028 | 87 | 0 | 0.0 | 2.0 | 0.00 | 0.00 | 0.00 | 74 | 1019.6 |
| 20260903193525 | 88 | 115 | 0.0 | 2.0 | 0.00 | 0.00 | 0.00 | 74 | 1019.6 |
| 20260903193054 | 88 | 114 | 0.0 | 2.0 | 0.00 | 0.00 | 0.00 | 73 | 1019.6 |
| 20260903192535 | 89 | 47 | 0.0 | 2.0 | 0.00 | 0.00 | 0.00 | 71 | 1019.8 |
| 20260903192026 | 89 | 23 | 1.0 | 2.0 | 0.00 | 0.00 | 0.00 | 70 | 1019.9 |
| 20260903191549 | 90 | 255 | 1.0 | 2.0 | 0.00 | 0.00 | 0.00 | 70 | 1020.1 |
| 20260903191025 | 90 | 29 | 0.0 | 2.0 | 0.00 | 0.00 | 0.00 | 70 | 1020.0 |
| 20260903190528 | 90 | 58 | 0.0 | 2.0 | 0.00 | 0.00 | 0.00 | 71 | 1020.2 |
| 20260903190047 | 89 | 214 | 0.0 | 2.0 | 0.00 | 0.00 | 0.00 | 71 | 1020.3 |
| 20260903185524 | 89 | 27 | 1.0 | 2.0 | 0.00 | 0.00 | 0.00 | 71 | 1020.4 |
| 20260903185026 | 89 | 0 | 0.0 | 0.0 | 0.00 | 0.00 | 0.00 | 71 | 1020.4 |
| 20260903184603 | 89 | 0 | 0.0 | 0.0 | 0.00 | 0.00 | 0.00 | 73 | 1020.6 |
| 20260903184030 | 88 | 0 | 0.0 | 0.0 | 0.00 | 0.00 | 0.00 | 73 | 1020.6 |
| 20260903183528 | 88 | 0 | 0.0 | 1.0 | 0.00 | 0.00 | 0.00 | 72 | 1020.7 |
| 20260903183046 | 88 | 0 | 0.0 | 2.0 | 0.00 | 0.00 | 0.00 | 72 | 1020.8 |
| 20260903182526 | 88 | 0 | 0.0 | 2.0 | 0.00 | 0.00 | 0.00 | 72 | 1021.0 |
| 20260903182024 | 87 | 0 | 0.0 | 1.0 | 0.00 | 0.00 | 0.00 | 75 | 1021.0 |
| 20260903181557 | 87 | 354 | 0.0 | 1.0 | 0.00 | 0.00 | 0.00 | 73 | 1021.0 |
| 20260903181025 | 87 | 0 | 0.0 | 1.0 | 0.00 | 0.00 | 0.00 | 75 | 1021.1 |
| 20260903180525 | 86 | 294 | 0.0 | 1.0 | 0.00 | 0.00 | 0.00 | 75 | 1021.1 |
| 20260903180105 | 86 | 0 | 0.0 | 1.0 | 0.00 | 0.00 | 0.00 | 76 | 1021.1 |
| 20260903175528 | 85 | 131 | 0.0 | 1.0 | 0.00 | 0.00 | 0.00 | 77 | 1021.1 |
| 20260903175024 | 85 | 0 | 0.0 | 1.0 | 0.00 | 0.00 | 0.00 | 78 | 1021.1 |
| 20260903174606 | 85 | 350 | 0.0 | 1.0 | 0.00 | 0.00 | 0.00 | 77 | 1021.1 |
| 20260903174026 | 84 | 0 | 0.0 | 2.0 | 0.00 | 0.00 | 0.00 | 78 | 1021.2 |
| 20260903173524 | 84 | 0 | 0.0 | 2.0 | 0.00 | 0.00 | 0.00 | 80 | 1021.3 |
| 20260903173048 | 84 | 325 | 0.0 | 2.0 | 0.00 | 0.00 | 0.00 | 81 | 1021.3 |
| 20260903172527 | 83 | 0 | 0.0 | 2.0 | 0.00 | 0.00 | 0.00 | 80 | 1021.3 |
| 20260903172026 | 83 | 314 | 0.0 | 2.0 | 0.00 | 0.00 | 0.00 | 80 | 1021.4 |
| 20260903171602 | 83 | 206 | 0.0 | 1.0 | 0.00 | 0.00 | 0.00 | 81 | 1021.3 |
| 20260903171025 | 83 | 0 | 0.0 | 0.0 | 0.00 | 0.00 | 0.00 | 81 | 1021.4 |
| 20260903170525 | 82 | 0 | 0.0 | 0.0 | 0.00 | 0.00 | 0.00 | 81 | 1021.4 |
| 20260903170108 | 82 | 0 | 0.0 | 0.0 | 0.00 | 0.00 | 0.00 | 81 | 1021.3 |
| 20260903165525 | 82 | 0 | 0.0 | 0.0 | 0.00 | 0.00 | 0.00 | 81 | 1021.4 |
| 20260903165024 | 82 | 0 | 0.0 | 0.0 | 0.00 | 0.00 | 0.00 | 82 | 1021.5 |
| 20260903164557 | 82 | 0 | 0.0 | 0.0 | 0.00 | 0.00 | 0.00 | 83 | 1021.5 |
| 20260903164025 | 82 | 0 | 0.0 | 0.0 | 0.00 | 0.00 | 0.00 | 83 | 1021.6 |
| 20260903163527 | 81 | 0 | 0.0 | 0.0 | 0.00 | 0.00 | 0.00 | 84 | 1021.6 |
| 20260903163103 | 81 | 0 | 0.0 | 0.0 | 0.00 | 0.00 | 0.00 | 83 | 1021.7 |
| 20260903162524 | 81 | 0 | 0.0 | 0.0 | 0.00 | 0.00 | 0.00 | 84 | 1021.8 |
| 20260903162027 | 80 | 0 | 0.0 | 0.0 | 0.00 | 0.00 | 0.00 | 85 | 1021.8 |
| 20260903161556 | 80 | 0 | 0.0 | 0.0 | 0.00 | 0.00 | 0.00 | 85 | 1022.0 |
| 20260903161031 | 80 | 0 | 0.0 | 0.0 | 0.00 | 0.00 | 0.00 | 85 | 1022.0 |
| 20260903160526 | 80 | 0 | 0.0 | 1.0 | 0.00 | 0.00 | 0.00 | 85 | 1022.2 |
| 20260903160049 | 80 | 0 | 0.0 | 1.0 | 0.00 | 0.00 | 0.00 | 85 | 1022.2 |
| 20260903155526 | 80 | 0 | 0.0 | 1.0 | 0.00 | 0.00 | 0.00 | 85 | 1022.3 |
| 20260903155029 | 80 | 0 | 0.0 | 2.0 | 0.00 | 0.00 | 0.00 | 85 | 1022.2 |
| 20260903154559 | 80 | 0 | 0.0 | 2.0 | 0.00 | 0.00 | 0.00 | 85 | 1022.3 |
| 20260903154027 | 80 | 0 | 0.0 | 1.0 | 0.00 | 0.00 | 0.00 | 86 | 1022.4 |
| 20260903153528 | 79 | 0 | 0.0 | 1.0 | 0.00 | 0.00 | 0.00 | 86 | 1022.4 |
| 20260903153059 | 79 | 0 | 0.0 | 1.0 | 0.00 | 0.00 | 0.00 | 87 | 1022.4 |
| 20260903152529 | 79 | 0 | 0.0 | 1.0 | 0.00 | 0.00 | 0.00 | 87 | 1022.5 |
| 20260903152025 | 79 | 0 | 0.0 | 1.0 | 0.00 | 0.00 | 0.00 | 88 | 1022.7 |
| 20260903151600 | 78 | 137 | 0.0 | 1.0 | 0.00 | 0.00 | 0.00 | 88 | 1022.7 |
| 20260903151025 | 78 | 0 | 0.0 | 2.0 | 0.00 | 0.00 | 0.00 | 88 | 1022.7 |
| 20260903150526 | 78 | 0 | 0.0 | 2.0 | 0.00 | 0.00 | 0.00 | 88 | 1022.8 |
| 20260903150113 | 78 | 287 | 0.0 | 2.0 | 0.00 | 0.00 | 0.00 | 88 | 1022.7 |
| 20260903145530 | 78 | 0 | 0.0 | 2.0 | 0.00 | 0.00 | 0.00 | 89 | 1022.8 |
| 20260903145028 | 77 | 223 | 0.0 | 2.0 | 0.00 | 0.00 | 0.00 | 89 | 1022.8 |
| 20260903144553 | 77 | 253 | 1.0 | 2.0 | 0.00 | 0.00 | 0.00 | 89 | 1022.7 |
| 20260903144027 | 77 | 0 | 0.0 | 1.0 | 0.00 | 0.00 | 0.00 | 90 | 1022.8 |
| 20260903143525 | 77 | 0 | 0.0 | 3.0 | 0.00 | 0.00 | 0.00 | 90 | 1022.8 |
| 20260903143050 | 77 | 308 | 0.0 | 3.0 | 0.00 | 0.00 | 0.00 | 90 | 1022.5 |
| 20260903142526 | 77 | 0 | 0.0 | 0.0 | 0.00 | 0.00 | 0.00 | 91 | 1022.3 |
| 20260903142030 | 77 | 0 | 0.0 | 0.0 | 0.00 | 0.00 | 0.00 | 91 | 1022.3 |
| 20260903141548 | 76 | 0 | 0.0 | 0.0 | 0.00 | 0.00 | 0.00 | 90 | 1022.2 |
| 20260903141026 | 76 | 0 | 0.0 | 0.0 | 0.00 | 0.00 | 0.00 | 91 | 1022.3 |
| 20260903140527 | 77 | 0 | 0.0 | 0.0 | 0.00 | 0.00 | 0.00 | 91 | 1021.8 |
| 20260903140047 | 76 | 0 | 0.0 | 0.0 | 0.00 | 0.00 | 0.00 | 92 | 1021.6 |
| 20260903135526 | 76 | 0 | 0.0 | 0.0 | 0.00 | 0.00 | 0.00 | 92 | 1021.5 |
| 20260903135025 | 76 | 0 | 0.0 | 0.0 | 0.00 | 0.00 | 0.00 | 92 | 1021.8 |
| 20260903134559 | 76 | 0 | 0.0 | 0.0 | 0.00 | 0.00 | 0.00 | 92 | 1021.6 |
| 20260903134032 | 75 | 0 | 0.0 | 0.0 | 0.00 | 0.00 | 0.00 | 93 | 1021.7 |
| 20260903133526 | 75 | 0 | 0.0 | 0.0 | 0.00 | 0.00 | 0.00 | 93 | 1021.7 |
| 20260903133056 | 75 | 0 | 0.0 | 0.0 | 0.00 | 0.00 | 0.00 | 93 | 1021.8 |
| 20260903132527 | 75 | 0 | 0.0 | 1.0 | 0.00 | 0.00 | 0.00 | 93 | 1021.8 |
| 20260903132027 | 74 | 0 | 0.0 | 1.0 | 0.00 | 0.00 | 0.00 | 93 | 1021.7 |
| 20260903131603 | 74 | 0 | 0.0 | 0.0 | 0.00 | 0.00 | 0.00 | 94 | 1021.9 |
| 20260903131028 | 74 | 0 | 0.0 | 0.0 | 0.00 | 0.00 | 0.00 | 94 | 1021.8 |
| 20260903130525 | 74 | 0 | 0.0 | 0.0 | 0.00 | 0.00 | 0.00 | 94 | 1021.8 |
| 20260903130115 | 73 | 0 | 0.0 | 0.0 | 0.00 | 0.00 | 0.00 | 95 | 1021.8 |
| 20260903125526 | 73 | 0 | 0.0 | 0.0 | 0.00 | 0.00 | 0.00 | 95 | 1021.9 |
| 20260903125026 | 73 | 0 | 0.0 | 0.0 | 0.00 | 0.00 | 0.00 | 95 | 1021.8 |
| 20260903124605 | 73 | 0 | 0.0 | 0.0 | 0.00 | 0.00 | 0.00 | 95 | 1022.0 |
| 20260903124024 | 73 | 0 | 0.0 | 0.0 | 0.00 | 0.00 | 0.00 | 95 | 1021.8 |
| 20260903123525 | 73 | 0 | 0.0 | 0.0 | 0.00 | 0.00 | 0.00 | 95 | 1021.9 |
| 20260903123048 | 73 | 0 | 0.0 | 0.0 | 0.00 | 0.00 | 0.00 | 95 | 1021.9 |
| 20260903122529 | 73 | 0 | 0.0 | 0.0 | 0.00 | 0.00 | 0.00 | 95 | 1021.9 |
| 20260903122026 | 73 | 0 | 0.0 | 0.0 | 0.00 | 0.00 | 0.00 | 95 | 1021.9 |
| 20260903121549 | 72 | 0 | 0.0 | 0.0 | 0.00 | 0.00 | 0.00 | 95 | 1021.9 |
| 20260903121026 | 72 | 0 | 0.0 | 0.0 | 0.00 | 0.00 | 0.00 | 95 | 1021.8 |
| 20260903120528 | 72 | 0 | 0.0 | 0.0 | 0.00 | 0.00 | 0.00 | 95 | 1021.9 |
| 20260903120059 | 72 | 0 | 0.0 | 0.0 | 0.00 | 0.00 | 0.00 | 95 | 1022.0 |
| 20260903115531 | 72 | 0 | 0.0 | 0.0 | 0.00 | 0.00 | 0.00 | 95 | 1021.9 |
| 20260903115028 | 72 | 0 | 0.0 | 0.0 | 0.00 | 0.00 | 0.00 | 95 | 1021.9 |
| 20260903114600 | 72 | 0 | 0.0 | 0.0 | 0.00 | 0.00 | 0.00 | 95 | 1022.0 |
| 20260903114025 | 72 | 0 | 0.0 | 0.0 | 0.00 | 0.00 | 0.00 | 95 | 1022.0 |
| 20260903113527 | 72 | 0 | 0.0 | 0.0 | 0.00 | 0.00 | 0.00 | 95 | 1022.0 |
| 20260903113047 | 72 | 0 | 0.0 | 0.0 | 0.00 | 0.00 | 0.00 | 95 | 1021.9 |
| 20260903112528 | 72 | 0 | 0.0 | 0.0 | 0.00 | 0.00 | 0.00 | 95 | 1021.9 |
| 20260903112026 | 72 | 0 | 0.0 | 0.0 | 0.00 | 0.00 | 0.00 | 95 | 1021.9 |
| 20260903111625 | 72 | 0 | 0.0 | 0.0 | 0.00 | 0.00 | 0.00 | 95 | 1021.8 |
| 20260903111028 | 72 | 0 | 0.0 | 0.0 | 0.00 | 0.00 | 0.00 | 95 | 1021.9 |
| 20260903110527 | 72 | 0 | 0.0 | 0.0 | 0.00 | 0.00 | 0.00 | 94 | 1021.8 |
| 20260903110109 | 72 | 0 | 0.0 | 0.0 | 0.00 | 0.00 | 0.00 | 94 | 1021.7 |
| 20260903105531 | 72 | 0 | 0.0 | 0.0 | 0.00 | 0.00 | 0.00 | 94 | 1021.7 |
| 20260903105026 | 72 | 0 | 0.0 | 0.0 | 0.00 | 0.00 | 0.00 | 94 | 1021.7 |
| 20260903104632 | 72 | 0 | 0.0 | 0.0 | 0.00 | 0.00 | 0.00 | 94 | 1021.7 |
| 20260903104028 | 72 | 0 | 0.0 | 0.0 | 0.00 | 0.00 | 0.00 | 94 | 1021.7 |
| 20260903103525 | 72 | 0 | 0.0 | 0.0 | 0.00 | 0.00 | 0.00 | 94 | 1021.5 |
| 20260903103047 | 72 | 0 | 0.0 | 0.0 | 0.00 | 0.00 | 0.00 | 94 | 1021.4 |
| 20260903102528 | 72 | 0 | 0.0 | 0.0 | 0.00 | 0.00 | 0.00 | 94 | 1021.2 |
| 20260903102029 | 72 | 0 | 0.0 | 0.0 | 0.00 | 0.00 | 0.00 | 95 | 1021.1 |
| 20260903101548 | 72 | 0 | 0.0 | 0.0 | 0.00 | 0.00 | 0.00 | 95 | 1020.9 |
| 20260903101025 | 72 | 0 | 0.0 | 0.0 | 0.00 | 0.00 | 0.00 | 95 | 1020.9 |
| 20260903100529 | 72 | 0 | 0.0 | 0.0 | 0.00 | 0.00 | 0.00 | 95 | 1020.9 |
| 20260903100058 | 72 | 0 | 0.0 | 0.0 | 0.00 | 0.00 | 0.00 | 95 | 1020.8 |